Home > Weather > Aberdeen > Past weeks

Flag for United Kingdom Past Weather in Aberdeen, Scotland, United Kingdom — Yesterday and Last 2 Weeks

Now
54 °F

Passing clouds.


Feels Like: 51 °F
Forecast: 46 / 60 °F
Wind: 9 mph from Southeast

Location: Aberdeen / Dyce

Current Time: May 29, 2016 at 6:29:01 PM

Latest Report: May 29, 2016 at 5:50 PM


Visibility: N/A

Pressure: 30.09 "Hg

Humidity: 82%

Dew Point: 48 °F

Location of AberdeenLocation

Past Weather in Aberdeen — Graph

°F

Aberdeen Temperature Yesterday

Maximum temperature yesterday: 57 °F (at 3:50 PM)
Minimum temperature yesterday: 48 °F (at 2:20 AM)
Average temperature yesterday: 52 °F

High & Low Weather Summary for the Past Weeks

 TemperatureHumidityPressure
High66 °F (May 21, 3:50 PM)100% (May 18, 1:50 AM)30.33 "Hg (May 18, 1:50 AM)
Low39 °F (May 15, 2:20 AM)42% (May 20, 3:20 PM)29.39 "Hg (May 21, 12:50 PM)
Average50 °F79%29.95 "Hg
* Reported May 14 4:20 PM — May 29 4:50 PM, Aberdeen, Weather by CustomWeather, © 2016

Note: Actual official high and low records may vary slightly from our data, if they occured in-between our weather recording intervals... More about our weather records

Advertising

Aberdeen Weather History for the Previous 24 Hours

Scroll right to see more
 ConditionsComfort  
Time TempWeatherWind HumidityBarometerVisibility
4:50 PM
Sun, May 29
54 °FPassing clouds.10 mph82%30.07 "HgN/A
4:20 PM55 °FSunny.10 mph77%30.07 "Hg10 mi
3:50 PM57 °FSunny.10 mph72%30.07 "Hg10 mi
3:20 PM57 °FPassing clouds.8 mph72%30.07 "HgN/A
2:50 PM55 °FPassing clouds.9 mph77%30.07 "HgN/A
2:20 PM55 °FPassing clouds.10 mph77%30.07 "HgN/A
1:50 PM54 °FPassing clouds.9 mph82%30.07 "HgN/A
1:20 PM55 °FPassing clouds.9 mph77%30.07 "HgN/A
12:50 PM54 °FPassing clouds.9 mph82%30.07 "HgN/A
12:20 PM54 °FPassing clouds.9 mph82%30.07 "HgN/A
11:50 AM55 °FPassing clouds.8 mph77%30.04 "HgN/A
11:20 AM54 °FPassing clouds.8 mph77%30.04 "HgN/A
10:50 AM52 °FPassing clouds.8 mph82%30.04 "HgN/A
10:20 AM54 °FPassing clouds.8 mph77%30.04 "HgN/A
9:50 AM52 °FPassing clouds.6 mph82%30.04 "HgN/A
9:20 AM52 °FPassing clouds.7 mph82%30.04 "HgN/A
8:50 AM52 °FScattered clouds.5 mph82%30.04 "HgN/A
8:20 AM48 °FScattered clouds.2 mph94%30.04 "Hg6 mi
7:50 AM46 °FPartly sunny.3 mph100%30.04 "Hg4 mi
7:20 AM46 °FFog.3 mph100%30.04 "Hg2 mi
6:50 AM46 °FFog.3 mph100%30.04 "Hg1 mi
6:20 AM46 °FFog.3 mph93%30.01 "Hg1 mi
5:50 AM46 °FFog.3 mph93%30.01 "Hg1 mi
5:20 AM46 °FFog.3 mph100%30.01 "Hg1 mi
4:50 AM46 °FFog.5 mph100%30.01 "Hg1 mi
4:20 AM46 °FFog.3 mph100%30.01 "Hg1 mi
3:50 AM46 °FFog.2 mph100%30.04 "Hg1 mi
3:20 AM46 °FFog.2 mph93%30.04 "Hg1 mi
2:50 AM46 °FFog.3 mph93%30.04 "Hg1 mi
2:20 AM46 °FFog.3 mph93%30.04 "Hg1 mi
1:50 AM46 °FFog.3 mph100%30.04 "Hg1 mi
1:20 AM46 °FFog.5 mph100%30.04 "Hg1 mi
12:50 AM46 °FPartly cloudy.6 mph100%30.04 "Hg2 mi
12:20 AM48 °FLow clouds.3 mph94%30.04 "HgN/A
11:50 PM
Sat, May 28
48 °FPartly cloudy.6 mph94%30.04 "Hg4 mi
11:20 PM48 °FPartly cloudy.7 mph94%30.04 "Hg3 mi
10:50 PM48 °FPartly cloudy.6 mph94%30.04 "Hg3 mi
10:20 PM48 °FBroken clouds.6 mph94%30.04 "Hg4 mi
9:50 PM48 °FBroken clouds.7 mph94%30.04 "Hg4 mi
9:20 PM48 °FLight fog.7 mph94%30.04 "HgN/A
8:50 PM50 °FSunny.7 mph88%30.04 "Hg10 mi
8:20 PM54 °FSunny.7 mph77%30.04 "Hg10 mi
7:50 PM54 °FSunny.6 mph77%30.04 "Hg10 mi
7:20 PM55 °FSunny.6 mph72%30.04 "Hg10 mi
6:50 PM54 °FSunny.7 mph77%30.04 "Hg10 mi
6:20 PM54 °FPassing clouds.9 mph77%30.04 "HgN/A
Weather by CustomWeather, © 2016

See weather overviewHow to use our weather pages